Time,TemperatureF,DewpointF,PressureIn,WindDirection,WindDirectionDegrees,WindSpeedMPH,WindSpeedGustMPH,Humidity,HourlyPrecipIn,Conditions,Clouds,dailyrainin,SoftwareType,DateUTC
2013-02-23 00:00:00,25.7,21.3,29.86,SW,217,1.0,1.0,83,0.00,,,0.00,Wunderground v.1.15,2013-02-23 06:00:00,
2013-02-23 00:05:00,25.7,21.0,29.86,SSW,212,1.0,3.0,82,0.00,,,0.00,Wunderground v.1.15,2013-02-23 06:05:00,
2013-02-23 00:11:00,25.6,20.9,29.86,SW,229,1.0,1.0,82,0.00,,,0.00,Wunderground v.1.15,2013-02-23 06:11:00,
2013-02-23 00:16:00,25.6,20.9,29.86,SW,230,1.0,3.0,82,0.00,,,0.00,Wunderground v.1.15,2013-02-23 06:16:00,
2013-02-23 00:21:00,25.6,20.9,29.86,SW,234,1.0,1.0,82,0.00,,,0.00,Wunderground v.1.15,2013-02-23 06:21:00,
2013-02-23 00:27:00,25.4,20.7,29.86,WSW,237,0.0,2.0,82,0.00,,,0.00,Wunderground v.1.15,2013-02-23 06:27:00,
2013-02-23 00:32:00,25.4,20.7,29.86,WSW,240,0.0,1.0,82,0.00,,,0.00,Wunderground v.1.15,2013-02-23 06:32:00,
2013-02-23 00:37:00,25.4,20.7,29.86,SW,230,1.0,1.0,82,0.00,,,0.00,Wunderground v.1.15,2013-02-23 06:37:00,
2013-02-23 00:43:00,25.3,20.6,29.86,WSW,257,1.0,1.0,82,0.00,,,0.00,Wunderground v.1.15,2013-02-23 06:43:00,
2013-02-23 00:48:00,25.3,20.6,29.86,WSW,241,1.0,2.0,82,0.00,,,0.00,Wunderground v.1.15,2013-02-23 06:48:00,
2013-02-23 00:53:00,25.3,20.6,29.86,SW,224,1.0,5.0,82,0.00,,,0.00,Wunderground v.1.15,2013-02-23 06:53:00,
2013-02-23 00:58:00,25.1,20.1,29.86,SW,217,1.0,7.0,81,0.00,,,0.00,Wunderground v.1.15,2013-02-23 06:58:00,
2013-02-23 01:04:00,25.1,20.1,29.86,SW,224,2.0,2.0,81,0.00,,,0.00,Wunderground v.1.15,2013-02-23 07:04:00,
2013-02-23 01:10:00,25.0,20.0,29.86,WSW,258,2.0,5.0,81,0.00,,,0.00,Wunderground v.1.15,2013-02-23 07:10:00,
2013-02-23 01:15:00,25.0,20.0,29.86,WSW,253,2.0,5.0,81,0.00,,,0.00,Wunderground v.1.15,2013-02-23 07:15:00,
2013-02-23 01:20:00,24.8,19.8,29.86,SW,233,2.0,2.0,81,0.00,,,0.00,Wunderground v.1.15,2013-02-23 07:20:00,
2013-02-23 01:26:00,24.8,19.8,29.86,SW,229,1.0,2.0,81,0.00,,,0.00,Wunderground v.1.15,2013-02-23 07:26:00,
2013-02-23 01:31:00,24.8,19.8,29.86,SW,227,1.0,3.0,81,0.00,,,0.00,Wunderground v.1.15,2013-02-23 07:31:00,
2013-02-23 01:37:00,24.7,19.7,29.86,SW,226,2.0,3.0,81,0.00,,,0.00,Wunderground v.1.15,2013-02-23 07:37:00,
2013-02-23 01:43:00,24.7,19.7,29.86,West,268,2.0,3.0,81,0.00,,,0.00,Wunderground v.1.15,2013-02-23 07:43:00,
2013-02-23 01:48:00,24.5,19.5,29.87,SW,236,2.0,6.0,81,0.00,,,0.00,Wunderground v.1.15,2013-02-23 07:48:00,
2013-02-23 01:53:00,24.5,19.5,29.87,SSW,206,2.0,6.0,81,0.00,,,0.00,Wunderground v.1.15,2013-02-23 07:53:00,
2013-02-23 01:58:00,24.4,19.4,29.87,SW,226,2.0,6.0,81,0.00,,,0.00,Wunderground v.1.15,2013-02-23 07:58:00,
2013-02-23 02:04:00,24.2,18.9,29.87,SW,236,3.0,4.0,80,0.00,,,0.00,Wunderground v.1.15,2013-02-23 08:04:00,
2013-02-23 02:10:00,24.2,18.9,29.87,SW,230,2.0,2.0,80,0.00,,,0.00,Wunderground v.1.15,2013-02-23 08:10:00,
2013-02-23 02:17:00,24.1,18.8,29.87,WSW,237,2.0,3.0,80,0.00,,,0.00,Wunderground v.1.15,2013-02-23 08:17:00,
2013-02-23 02:23:00,23.9,18.6,29.87,WSW,247,2.0,2.0,80,0.00,,,0.00,Wunderground v.1.15,2013-02-23 08:23:00,
2013-02-23 02:28:00,23.9,18.6,29.87,SSW,212,2.0,5.0,80,0.00,,,0.00,Wunderground v.1.15,2013-02-23 08:28:00,
2013-02-23 02:33:00,23.8,18.5,29.87,WSW,239,2.0,3.0,80,0.00,,,0.00,Wunderground v.1.15,2013-02-23 08:33:00,
2013-02-23 02:40:00,23.8,18.5,29.87,WSW,246,2.0,2.0,80,0.00,,,0.00,Wunderground v.1.15,2013-02-23 08:40:00,
2013-02-23 02:46:00,23.6,18.3,29.87,SW,217,1.0,2.0,80,0.00,,,0.00,Wunderground v.1.15,2013-02-23 08:46:00,
2013-02-23 02:51:00,23.6,18.3,29.87,WSW,241,1.0,2.0,80,0.00,,,0.00,Wunderground v.1.15,2013-02-23 08:51:00,
2013-02-23 02:56:00,23.6,18.3,29.87,SW,234,1.0,2.0,80,0.00,,,0.00,Wunderground v.1.15,2013-02-23 08:56:00,
2013-02-23 03:02:00,23.6,18.3,29.86,WSW,237,1.0,2.0,80,0.00,,,0.00,Wunderground v.1.15,2013-02-23 09:02:00,
2013-02-23 03:07:00,23.5,18.2,29.86,SW,230,1.0,5.0,80,0.00,,,0.00,Wunderground v.1.15,2013-02-23 09:07:00,
2013-02-23 03:12:00,23.5,18.5,29.86,SW,234,2.0,4.0,81,0.00,,,0.00,Wunderground v.1.15,2013-02-23 09:12:00,
2013-02-23 03:18:00,23.5,18.5,29.86,WSW,254,2.0,6.0,81,0.00,,,0.00,Wunderground v.1.15,2013-02-23 09:18:00,
2013-02-23 03:23:00,23.5,18.5,29.86,SW,232,2.0,2.0,81,0.00,,,0.00,Wunderground v.1.15,2013-02-23 09:23:00,
2013-02-23 03:29:00,23.3,18.3,29.86,WSW,239,1.0,5.0,81,0.00,,,0.00,Wunderground v.1.15,2013-02-23 09:29:00,
2013-02-23 03:34:00,23.3,18.3,29.86,WSW,244,2.0,3.0,81,0.00,,,0.00,Wunderground v.1.15,2013-02-23 09:34:00,
2013-02-23 03:39:00,23.3,18.3,29.86,WSW,254,3.0,7.0,81,0.00,,,0.00,Wunderground v.1.15,2013-02-23 09:39:00,
2013-02-23 03:45:00,23.3,18.3,29.86,WSW,237,4.0,5.0,81,0.00,,,0.00,Wunderground v.1.15,2013-02-23 09:45:00,
2013-02-23 03:51:00,23.2,18.2,29.86,SW,232,3.0,4.0,81,0.00,,,0.00,Wunderground v.1.15,2013-02-23 09:51:00,
2013-02-23 03:56:00,23.2,18.2,29.86,SW,234,2.0,5.0,81,0.00,,,0.00,Wunderground v.1.15,2013-02-23 09:56:00,
2013-02-23 04:01:00,23.2,18.2,29.87,WSW,253,1.0,3.0,81,0.00,,,0.00,Wunderground v.1.15,2013-02-23 10:01:00,
2013-02-23 04:07:00,23.0,18.3,29.87,SW,222,2.0,6.0,82,0.00,,,0.00,Wunderground v.1.15,2013-02-23 10:07:00,
2013-02-23 04:13:00,23.0,18.3,29.87,SSW,208,3.0,3.0,82,0.00,,,0.00,Wunderground v.1.15,2013-02-23 10:13:00,
2013-02-23 04:18:00,23.0,18.3,29.87,WSW,246,2.0,3.0,82,0.00,,,0.00,Wunderground v.1.15,2013-02-23 10:18:00,
2013-02-23 04:23:00,23.0,18.3,29.87,WSW,243,1.0,6.0,82,0.00,,,0.00,Wunderground v.1.15,2013-02-23 10:23:00,
2013-02-23 04:28:00,22.9,18.2,29.87,WSW,237,1.0,8.0,82,0.00,,,0.00,Wunderground v.1.15,2013-02-23 10:28:00,
2013-02-23 04:33:00,22.9,18.2,29.87,SSW,203,1.0,3.0,82,0.00,,,0.00,Wunderground v.1.15,2013-02-23 10:33:00,
2013-02-23 04:38:00,22.9,18.2,29.87,SW,230,2.0,5.0,82,0.00,,,0.00,Wunderground v.1.15,2013-02-23 10:38:00,
2013-02-23 04:43:00,22.7,18.0,29.87,SSW,206,3.0,5.0,82,0.00,,,0.00,Wunderground v.1.15,2013-02-23 10:43:00,
2013-02-23 04:48:00,22.7,18.0,29.87,WSW,239,2.0,7.0,82,0.00,,,0.00,Wunderground v.1.15,2013-02-23 10:48:00,
2013-02-23 04:54:00,22.7,18.0,29.87,WSW,246,2.0,6.0,82,0.00,,,0.00,Wunderground v.1.15,2013-02-23 10:54:00,
2013-02-23 05:00:00,22.5,18.1,29.87,SW,222,2.0,3.0,83,0.00,,,0.00,Wunderground v.1.15,2013-02-23 11:00:00,
2013-02-23 05:05:00,22.5,18.1,29.87,SW,227,2.0,4.0,83,0.00,,,0.00,Wunderground v.1.15,2013-02-23 11:05:00,
2013-02-23 05:11:00,22.4,18.0,29.87,SW,226,3.0,3.0,83,0.00,,,0.00,Wunderground v.1.15,2013-02-23 11:11:00,
2013-02-23 05:16:00,22.4,18.0,29.87,SW,236,3.0,3.0,83,0.00,,,0.00,Wunderground v.1.15,2013-02-23 11:16:00,
2013-02-23 05:22:00,22.4,18.0,29.87,WSW,257,2.0,6.0,83,0.00,,,0.00,Wunderground v.1.15,2013-02-23 11:22:00,
2013-02-23 05:27:00,22.2,17.8,29.87,SW,236,2.0,6.0,83,0.00,,,0.00,Wunderground v.1.15,2013-02-23 11:27:00,
2013-02-23 05:32:00,22.2,17.8,29.88,SW,226,2.0,2.0,83,0.00,,,0.00,Wunderground v.1.15,2013-02-23 11:32:00,
2013-02-23 05:37:00,22.2,17.8,29.88,SW,223,2.0,5.0,83,0.00,,,0.00,Wunderground v.1.15,2013-02-23 11:37:00,
2013-02-23 05:43:00,22.1,17.7,29.88,SW,230,2.0,5.0,83,0.00,,,0.00,Wunderground v.1.15,2013-02-23 11:43:00,
2013-02-23 05:48:00,22.1,17.7,29.88,WSW,251,2.0,5.0,83,0.00,,,0.00,Wunderground v.1.15,2013-02-23 11:48:00,
2013-02-23 05:54:00,22.1,17.7,29.88,WSW,243,2.0,3.0,83,0.00,,,0.00,Wunderground v.1.15,2013-02-23 11:54:00,
2013-02-23 05:59:00,21.9,17.5,29.89,SW,236,1.0,7.0,83,0.00,,,0.00,Wunderground v.1.15,2013-02-23 11:59:00,
2013-02-23 06:04:00,21.9,17.5,29.89,WSW,239,2.0,5.0,83,0.00,,,0.00,Wunderground v.1.15,2013-02-23 12:04:00,
2013-02-23 06:10:00,21.9,17.5,29.89,SW,232,2.0,2.0,83,0.00,,,0.00,Wunderground v.1.15,2013-02-23 12:10:00,
2013-02-23 06:16:00,21.8,17.4,29.89,SW,230,2.0,7.0,83,0.00,,,0.00,Wunderground v.1.15,2013-02-23 12:16:00,
2013-02-23 06:22:00,21.8,17.4,29.89,SW,232,2.0,2.0,83,0.00,,,0.00,Wunderground v.1.15,2013-02-23 12:22:00,
2013-02-23 06:27:00,21.8,17.4,29.89,WSW,254,2.0,5.0,83,0.00,,,0.00,Wunderground v.1.15,2013-02-23 12:27:00,
2013-02-23 06:33:00,21.8,17.4,29.89,South,178,3.0,5.0,83,0.00,,,0.00,Wunderground v.1.15,2013-02-23 12:33:00,
2013-02-23 06:39:00,21.8,17.4,29.89,SW,224,2.0,5.0,83,0.00,,,0.00,Wunderground v.1.15,2013-02-23 12:39:00,
2013-02-23 06:44:00,21.6,17.2,29.90,SW,236,2.0,3.0,83,0.00,,,0.00,Wunderground v.1.15,2013-02-23 12:44:00,
2013-02-23 06:49:00,21.6,17.2,29.90,SW,216,2.0,4.0,83,0.00,,,0.00,Wunderground v.1.15,2013-02-23 12:49:00,
2013-02-23 06:55:00,21.6,17.2,29.90,SSW,192,2.0,6.0,83,0.00,,,0.00,Wunderground v.1.15,2013-02-23 12:55:00,
2013-02-23 07:01:00,21.6,17.2,29.90,SW,232,1.0,2.0,83,0.00,,,0.00,Wunderground v.1.15,2013-02-23 13:01:00,
2013-02-23 07:07:00,21.6,17.2,29.90,SW,222,1.0,6.0,83,0.00,,,0.00,Wunderground v.1.15,2013-02-23 13:07:00,
2013-02-23 07:12:00,21.6,17.2,29.90,WSW,254,1.0,5.0,83,0.00,,,0.00,Wunderground v.1.15,2013-02-23 13:12:00,
2013-02-23 07:18:00,21.6,17.2,29.90,SW,227,0.0,5.0,83,0.00,,,0.00,Wunderground v.1.15,2013-02-23 13:18:00,
2013-02-23 07:24:00,21.6,17.2,29.90,SW,234,1.0,6.0,83,0.00,,,0.00,Wunderground v.1.15,2013-02-23 13:24:00,
2013-02-23 07:29:00,21.6,17.2,29.90,WSW,240,2.0,6.0,83,0.00,,,0.00,Wunderground v.1.15,2013-02-23 13:29:00,
2013-02-23 07:35:00,21.8,17.4,29.90,SSW,206,2.0,3.0,83,0.00,,,0.00,Wunderground v.1.15,2013-02-23 13:35:00,
2013-02-23 07:41:00,21.8,17.4,29.90,SW,220,2.0,4.0,83,0.00,,,0.00,Wunderground v.1.15,2013-02-23 13:41:00,
2013-02-23 07:46:00,21.8,17.4,29.89,SSW,209,2.0,6.0,83,0.00,,,0.00,Wunderground v.1.15,2013-02-23 13:46:00,
2013-02-23 07:51:00,21.8,17.4,29.89,SW,232,1.0,2.0,83,0.00,,,0.00,Wunderground v.1.15,2013-02-23 13:51:00,
2013-02-23 07:57:00,21.8,17.4,29.89,South,186,2.0,5.0,83,0.00,,,0.00,Wunderground v.1.15,2013-02-23 13:57:00,
2013-02-23 08:02:00,21.9,17.5,29.89,WSW,248,3.0,5.0,83,0.00,,,0.00,Wunderground v.1.15,2013-02-23 14:02:00,
2013-02-23 08:08:00,21.9,17.5,29.89,SW,222,2.0,5.0,83,0.00,,,0.00,Wunderground v.1.15,2013-02-23 14:08:00,
2013-02-23 08:13:00,21.9,17.5,29.89,SW,230,2.0,7.0,83,0.00,,,0.00,Wunderground v.1.15,2013-02-23 14:13:00,
2013-02-23 08:19:00,22.1,17.7,29.90,SW,230,3.0,7.0,83,0.00,,,0.00,Wunderground v.1.15,2013-02-23 14:19:00,
2013-02-23 08:24:00,22.1,17.4,29.90,WSW,253,3.0,6.0,82,0.00,,,0.00,Wunderground v.1.15,2013-02-23 14:24:00,
2013-02-23 08:29:00,22.2,17.5,29.90,SW,233,2.0,6.0,82,0.00,,,0.00,Wunderground v.1.15,2013-02-23 14:29:00,
2013-02-23 08:35:00,22.4,17.7,29.90,SW,230,2.0,5.0,82,0.00,,,0.00,Wunderground v.1.15,2013-02-23 14:35:00,
2013-02-23 08:41:00,22.4,17.7,29.90,SW,229,2.0,2.0,82,0.00,,,0.00,Wunderground v.1.15,2013-02-23 14:41:00,
2013-02-23 08:46:00,22.5,17.8,29.90,SW,233,2.0,8.0,82,0.00,,,0.00,Wunderground v.1.15,2013-02-23 14:46:00,
2013-02-23 08:52:00,22.7,18.0,29.90,SW,236,2.0,4.0,82,0.00,,,0.00,Wunderground v.1.15,2013-02-23 14:52:00,
2013-02-23 08:57:00,22.9,17.9,29.90,SW,215,3.0,8.0,81,0.00,,,0.00,Wunderground v.1.15,2013-02-23 14:57:00,
2013-02-23 09:03:00,23.0,18.0,29.90,SW,234,4.0,5.0,81,0.00,,,0.00,Wunderground v.1.15,2013-02-23 15:03:00,
2013-02-23 09:09:00,23.2,17.9,29.90,WSW,240,4.0,5.0,80,0.00,,,0.00,Wunderground v.1.15,2013-02-23 15:09:00,
2013-02-23 09:15:00,23.3,18.0,29.90,WSW,244,4.0,8.0,80,0.00,,,0.00,Wunderground v.1.15,2013-02-23 15:15:00,
2013-02-23 09:21:00,23.6,18.3,29.90,WSW,250,4.0,7.0,80,0.00,,,0.00,Wunderground v.1.15,2013-02-23 15:21:00,
2013-02-23 09:26:00,23.8,18.2,29.90,SSW,208,4.0,7.0,79,0.00,,,0.00,Wunderground v.1.15,2013-02-23 15:26:00,
2013-02-23 09:31:00,23.9,18.0,29.90,West,260,4.0,6.0,78,0.00,,,0.00,Wunderground v.1.15,2013-02-23 15:31:00,
2013-02-23 09:37:00,24.1,18.2,29.90,SW,220,3.0,6.0,78,0.00,,,0.00,Wunderground v.1.15,2013-02-23 15:37:00,
2013-02-23 09:43:00,24.4,18.5,29.90,WSW,257,3.0,7.0,78,0.00,,,0.00,Wunderground v.1.15,2013-02-23 15:43:00,
2013-02-23 09:48:00,24.7,18.5,29.90,WSW,248,4.0,7.0,77,0.00,,,0.00,Wunderground v.1.15,2013-02-23 15:48:00,
2013-02-23 09:53:00,24.8,18.3,29.90,SW,222,5.0,10.0,76,0.00,,,0.00,Wunderground v.1.15,2013-02-23 15:53:00,
2013-02-23 09:59:00,25.0,18.2,29.90,SSW,208,5.0,10.0,75,0.00,,,0.00,Wunderground v.1.15,2013-02-23 15:59:00,
2013-02-23 10:04:00,25.3,18.5,29.90,WSW,240,5.0,10.0,75,0.00,,,0.00,Wunderground v.1.15,2013-02-23 16:04:00,
2013-02-23 10:09:00,25.6,18.8,29.90,WSW,239,5.0,13.0,75,0.00,,,0.00,Wunderground v.1.15,2013-02-23 16:09:00,
2013-02-23 10:15:00,25.7,18.2,29.90,WSW,247,4.0,6.0,73,0.00,,,0.00,Wunderground v.1.15,2013-02-23 16:15:00,
2013-02-23 10:20:00,25.8,18.3,29.90,WSW,253,3.0,3.0,73,0.00,,,0.00,Wunderground v.1.15,2013-02-23 16:20:00,
2013-02-23 10:25:00,26.3,18.5,29.90,SSW,213,3.0,3.0,72,0.00,,,0.00,Wunderground v.1.15,2013-02-23 16:25:00,
2013-02-23 10:30:00,26.6,18.8,29.90,WSW,250,3.0,7.0,72,0.00,,,0.00,Wunderground v.1.15,2013-02-23 16:30:00,
2013-02-23 10:35:00,26.9,18.7,29.90,WSW,247,4.0,7.0,71,0.00,,,0.00,Wunderground v.1.15,2013-02-23 16:35:00,
2013-02-23 10:41:00,27.2,18.7,29.90,SW,217,3.0,4.0,70,0.00,,,0.00,Wunderground v.1.15,2013-02-23 16:41:00,
2013-02-23 10:46:00,27.5,19.0,29.90,WSW,257,2.0,4.0,70,0.00,,,0.00,Wunderground v.1.15,2013-02-23 16:46:00,
2013-02-23 10:52:00,27.6,19.1,29.90,WSW,247,2.0,5.0,70,0.00,,,0.00,Wunderground v.1.15,2013-02-23 16:52:00,
2013-02-23 10:58:00,28.5,19.3,29.90,SW,223,3.0,6.0,68,0.00,,,0.00,Wunderground v.1.15,2013-02-23 16:58:00,
2013-02-23 11:03:00,29.0,19.4,29.90,WSW,253,4.0,7.0,67,0.00,,,0.00,Wunderground v.1.15,2013-02-23 17:03:00,
2013-02-23 11:09:00,29.4,19.4,29.90,WSW,248,3.0,7.0,66,0.00,,,0.00,Wunderground v.1.15,2013-02-23 17:09:00,
2013-02-23 11:15:00,30.1,19.7,29.90,WSW,243,4.0,5.0,65,0.00,,,0.00,Wunderground v.1.15,2013-02-23 17:15:00,
2013-02-23 11:21:00,31.3,20.2,29.90,SSW,206,3.0,5.0,63,0.00,,,0.00,Wunderground v.1.15,2013-02-23 17:21:00,
2013-02-23 11:27:00,32.1,20.2,29.90,WSW,239,4.0,5.0,61,0.00,,,0.00,Wunderground v.1.15,2013-02-23 17:27:00,
2013-02-23 11:32:00,32.1,19.8,29.90,SW,224,4.0,6.0,60,0.00,,,0.00,Wunderground v.1.15,2013-02-23 17:32:00,
2013-02-23 11:37:00,31.9,19.2,29.90,WSW,239,3.0,6.0,59,0.00,,,0.00,Wunderground v.1.15,2013-02-23 17:37:00,
2013-02-23 11:42:00,32.1,19.8,29.90,SW,234,3.0,5.0,60,0.00,,,0.00,Wunderground v.1.15,2013-02-23 17:42:00,
2013-02-23 11:47:00,32.4,19.7,29.90,SW,226,3.0,7.0,59,0.00,,,0.00,Wunderground v.1.15,2013-02-23 17:47:00,
2013-02-23 11:52:00,31.6,18.5,29.90,SW,223,4.0,6.0,58,0.00,,,0.00,Wunderground v.1.15,2013-02-23 17:52:00,
2013-02-23 11:57:00,31.3,18.6,29.90,SSW,198,4.0,6.0,59,0.00,,,0.00,Wunderground v.1.15,2013-02-23 17:57:00,
2013-02-23 12:03:00,31.8,19.5,29.90,WSW,237,3.0,5.0,60,0.00,,,0.00,Wunderground v.1.15,2013-02-23 18:03:00,
2013-02-23 12:08:00,31.9,19.6,29.90,WSW,240,4.0,7.0,60,0.00,,,0.00,Wunderground v.1.15,2013-02-23 18:08:00,
2013-02-23 12:17:00,31.9,19.6,29.90,WSW,239,4.0,4.0,60,0.00,,,0.00,Wunderground v.1.15,2013-02-23 18:17:00,
2013-02-23 12:23:00,32.1,19.8,29.90,SW,227,4.0,6.0,60,0.00,,,0.00,Wunderground v.1.15,2013-02-23 18:23:00,
2013-02-23 12:29:00,31.9,19.2,29.90,WSW,251,4.0,7.0,59,0.00,,,0.00,Wunderground v.1.15,2013-02-23 18:29:00,
2013-02-23 12:34:00,31.6,19.3,29.90,WSW,256,4.0,5.0,60,0.00,,,0.00,Wunderground v.1.15,2013-02-23 18:34:00,
2013-02-23 12:39:00,31.6,19.3,29.90,WSW,240,5.0,7.0,60,0.00,,,0.00,Wunderground v.1.15,2013-02-23 18:39:00,
2013-02-23 12:45:00,31.6,18.9,29.89,WSW,240,4.0,5.0,59,0.00,,,0.00,Wunderground v.1.15,2013-02-23 18:45:00,
2013-02-23 12:50:00,31.3,18.2,29.89,SW,236,3.0,5.0,58,0.00,,,0.00,Wunderground v.1.15,2013-02-23 18:50:00,
2013-02-23 12:56:00,31.0,18.3,29.89,WSW,237,4.0,6.0,59,0.00,,,0.00,Wunderground v.1.15,2013-02-23 18:56:00,
2013-02-23 13:01:00,31.2,18.9,29.88,SSW,209,4.0,8.0,60,0.00,,,0.00,Wunderground v.1.15,2013-02-23 19:01:00,
2013-02-23 13:07:00,31.5,19.2,29.88,SW,224,3.0,8.0,60,0.00,,,0.00,Wunderground v.1.15,2013-02-23 19:07:00,
2013-02-23 13:16:00,31.8,18.7,29.88,WSW,250,2.0,6.0,58,0.00,,,0.00,Wunderground v.1.15,2013-02-23 19:16:00,
2013-02-23 13:21:00,31.8,19.1,29.88,SW,226,4.0,8.0,59,0.00,,,0.00,Wunderground v.1.15,2013-02-23 19:21:00,
2013-02-23 13:27:00,31.6,18.9,29.88,SW,236,3.0,6.0,59,0.00,,,0.00,Wunderground v.1.15,2013-02-23 19:27:00,
2013-02-23 13:33:00,31.3,18.6,29.88,WSW,241,4.0,7.0,59,0.00,,,0.00,Wunderground v.1.15,2013-02-23 19:33:00,
2013-02-23 13:39:00,31.2,18.9,29.88,WSW,240,4.0,5.0,60,0.00,,,0.00,Wunderground v.1.15,2013-02-23 19:39:00,
2013-02-23 13:44:00,30.9,18.6,29.89,West,272,2.0,5.0,60,0.00,,,0.00,Wunderground v.1.15,2013-02-23 19:44:00,
2013-02-23 13:50:00,30.7,18.4,29.89,SW,226,3.0,5.0,60,0.00,,,0.00,Wunderground v.1.15,2013-02-23 19:50:00,
2013-02-23 13:56:00,30.3,17.7,29.89,SSW,209,3.0,6.0,59,0.00,,,0.00,Wunderground v.1.15,2013-02-23 19:56:00,
2013-02-23 14:01:00,30.0,18.2,29.88,SW,223,3.0,4.0,61,0.00,,,0.00,Wunderground v.1.15,2013-02-23 20:01:00,
2013-02-23 14:07:00,29.5,17.3,29.88,West,265,3.0,13.0,60,0.00,,,0.00,Wunderground v.1.15,2013-02-23 20:07:00,
2013-02-23 14:12:00,29.4,17.6,29.88,SW,223,3.0,5.0,61,0.00,,,0.00,Wunderground v.1.15,2013-02-23 20:12:00,
2013-02-23 14:18:00,29.4,18.0,29.88,SW,222,3.0,6.0,62,0.00,,,0.00,Wunderground v.1.15,2013-02-23 20:18:00,
2013-02-23 14:24:00,29.4,18.0,29.88,WSW,254,3.0,4.0,62,0.00,,,0.00,Wunderground v.1.15,2013-02-23 20:24:00,
2013-02-23 14:29:00,29.5,18.1,29.88,SW,222,3.0,10.0,62,0.00,,,0.00,Wunderground v.1.15,2013-02-23 20:29:00,
2013-02-23 14:35:00,29.8,18.7,29.88,WSW,253,3.0,3.0,63,0.00,,,0.00,Wunderground v.1.15,2013-02-23 20:35:00,
2013-02-23 14:40:00,30.0,18.5,29.88,WSW,256,2.0,10.0,62,0.00,,,0.00,Wunderground v.1.15,2013-02-23 20:40:00,
2013-02-23 14:46:00,30.1,18.3,29.88,WSW,256,3.0,10.0,61,0.00,,,0.00,Wunderground v.1.15,2013-02-23 20:46:00,
2013-02-23 14:52:00,30.1,17.9,29.88,WSW,256,2.0,5.0,60,0.00,,,0.00,Wunderground v.1.15,2013-02-23 20:52:00,
2013-02-23 14:58:00,30.4,18.5,29.89,SW,229,1.0,5.0,61,0.00,,,0.00,Wunderground v.1.15,2013-02-23 20:58:00,
2013-02-23 15:04:00,30.7,18.8,29.89,WSW,254,1.0,5.0,61,0.00,,,0.00,Wunderground v.1.15,2013-02-23 21:04:00,
2013-02-23 15:10:00,30.9,18.6,29.89,SW,236,2.0,2.0,60,0.00,,,0.00,Wunderground v.1.15,2013-02-23 21:10:00,
2013-02-23 15:15:00,31.0,18.7,29.88,WSW,254,1.0,6.0,60,0.00,,,0.00,Wunderground v.1.15,2013-02-23 21:15:00,
2013-02-23 15:21:00,31.0,17.9,29.88,WSW,248,1.0,6.0,58,0.00,,,0.00,Wunderground v.1.15,2013-02-23 21:21:00,
2013-02-23 15:26:00,30.9,17.8,29.88,SW,236,2.0,8.0,58,0.00,,,0.00,Wunderground v.1.15,2013-02-23 21:26:00,
2013-02-23 15:31:00,30.7,17.7,29.88,SW,233,2.0,2.0,58,0.00,,,0.00,Wunderground v.1.15,2013-02-23 21:31:00,
2013-02-23 15:37:00,30.7,18.1,29.88,SW,234,2.0,5.0,59,0.00,,,0.00,Wunderground v.1.15,2013-02-23 21:37:00,
2013-02-23 15:42:00,30.7,17.7,29.88,West,261,1.0,3.0,58,0.00,,,0.00,Wunderground v.1.15,2013-02-23 21:42:00,
2013-02-23 15:48:00,30.7,17.7,29.89,SW,226,1.0,5.0,58,0.00,,,0.00,Wunderground v.1.15,2013-02-23 21:48:00,
2013-02-23 15:53:00,30.6,17.6,29.89,South,182,3.0,4.0,58,0.00,,,0.00,Wunderground v.1.15,2013-02-23 21:53:00,
2013-02-23 15:58:00,30.3,17.3,29.89,WSW,247,2.0,5.0,58,0.00,,,0.00,Wunderground v.1.15,2013-02-23 21:58:00,
2013-02-23 16:04:00,30.0,17.4,29.89,SW,230,2.0,4.0,59,0.00,,,0.00,Wunderground v.1.15,2013-02-23 22:04:00,
2013-02-23 16:10:00,29.5,17.3,29.89,WSW,253,1.0,7.0,60,0.00,,,0.00,Wunderground v.1.15,2013-02-23 22:10:00,
2013-02-23 16:16:00,29.3,17.1,29.89,SW,229,2.0,7.0,60,0.00,,,0.00,Wunderground v.1.15,2013-02-23 22:16:00,
2013-02-23 16:21:00,29.0,16.8,29.89,WSW,237,2.0,2.0,60,0.00,,,0.00,Wunderground v.1.15,2013-02-23 22:21:00,
2013-02-23 16:27:00,28.5,16.7,29.89,SW,230,1.0,3.0,61,0.00,,,0.00,Wunderground v.1.15,2013-02-23 22:27:00,
2013-02-23 16:32:00,28.2,16.5,29.90,WSW,244,1.0,6.0,61,0.00,,,0.00,Wunderground v.1.15,2013-02-23 22:32:00,
2013-02-23 16:37:00,27.9,16.6,29.90,WSW,240,1.0,6.0,62,0.00,,,0.00,Wunderground v.1.15,2013-02-23 22:37:00,
2013-02-23 16:42:00,27.6,16.6,29.90,SW,227,0.0,1.0,63,0.00,,,0.00,Wunderground v.1.15,2013-02-23 22:42:00,
2013-02-23 16:48:00,27.5,16.9,29.90,SW,216,1.0,6.0,64,0.00,,,0.00,Wunderground v.1.15,2013-02-23 22:48:00,
2013-02-23 16:53:00,27.2,16.6,29.90,WSW,237,1.0,1.0,64,0.00,,,0.00,Wunderground v.1.15,2013-02-23 22:53:00,
2013-02-23 16:59:00,26.9,16.7,29.90,WSW,237,1.0,3.0,65,0.00,,,0.00,Wunderground v.1.15,2013-02-23 22:59:00,
2013-02-23 17:05:00,26.7,16.9,29.90,WSW,244,0.0,1.0,66,0.00,,,0.00,Wunderground v.1.15,2013-02-23 23:05:00,
2013-02-23 17:10:00,26.6,16.8,29.90,WSW,248,0.0,0.0,66,0.00,,,0.00,Wunderground v.1.15,2013-02-23 23:10:00,
2013-02-23 17:17:00,26.3,16.5,29.91,SW,234,1.0,5.0,66,0.00,,,0.00,Wunderground v.1.15,2013-02-23 23:17:00,
2013-02-23 17:22:00,26.1,16.3,29.91,SSW,203,1.0,5.0,66,0.00,,,0.00,Wunderground v.1.15,2013-02-23 23:22:00,
2013-02-23 17:27:00,25.8,16.0,29.91,SW,226,1.0,5.0,66,0.00,,,0.00,Wunderground v.1.15,2013-02-23 23:27:00,
2013-02-23 17:32:00,25.6,16.2,29.91,SSW,212,1.0,1.0,67,0.00,,,0.00,Wunderground v.1.15,2013-02-23 23:32:00,
2013-02-23 17:37:00,25.4,16.0,29.91,SW,222,1.0,5.0,67,0.00,,,0.00,Wunderground v.1.15,2013-02-23 23:37:00,
2013-02-23 17:43:00,25.3,16.2,29.91,SW,230,1.0,4.0,68,0.00,,,0.00,Wunderground v.1.15,2013-02-23 23:43:00,
2013-02-23 17:48:00,25.1,16.0,29.92,SW,226,2.0,4.0,68,0.00,,,0.00,Wunderground v.1.15,2013-02-23 23:48:00,
2013-02-23 17:54:00,25.0,15.9,29.92,SW,224,1.0,3.0,68,0.00,,,0.00,Wunderground v.1.15,2013-02-23 23:54:00,
2013-02-23 18:00:00,24.8,16.1,29.92,SW,219,2.0,2.0,69,0.00,,,0.00,Wunderground v.1.15,2013-02-24 00:00:00,
2013-02-23 18:06:00,24.7,16.0,29.92,SW,233,2.0,6.0,69,0.00,,,0.00,Wunderground v.1.15,2013-02-24 00:06:00,
2013-02-23 18:12:00,24.5,16.1,29.92,WSW,243,3.0,5.0,70,0.00,,,0.00,Wunderground v.1.15,2013-02-24 00:12:00,
2013-02-23 18:17:00,24.5,16.1,29.93,WSW,248,2.0,5.0,70,0.00,,,0.00,Wunderground v.1.15,2013-02-24 00:17:00,
2013-02-23 18:23:00,24.4,16.0,29.93,SW,216,1.0,2.0,70,0.00,,,0.00,Wunderground v.1.15,2013-02-24 00:23:00,
2013-02-23 18:29:00,24.4,16.0,29.93,SW,229,1.0,2.0,70,0.00,,,0.00,Wunderground v.1.15,2013-02-24 00:29:00,
2013-02-23 18:35:00,24.4,16.3,29.93,SSW,205,0.0,3.0,71,0.00,,,0.00,Wunderground v.1.15,2013-02-24 00:35:00,
2013-02-23 18:41:00,24.2,16.1,29.93,WSW,243,0.0,0.0,71,0.00,,,0.00,Wunderground v.1.15,2013-02-24 00:41:00,
2013-02-23 18:46:00,24.2,16.1,29.93,SW,216,1.0,3.0,71,0.00,,,0.00,Wunderground v.1.15,2013-02-24 00:46:00,
2013-02-23 18:52:00,24.2,16.1,29.93,SW,230,1.0,2.0,71,0.00,,,0.00,Wunderground v.1.15,2013-02-24 00:52:00,
2013-02-23 18:57:00,24.1,16.1,29.93,SW,232,1.0,2.0,71,0.00,,,0.00,Wunderground v.1.15,2013-02-24 00:57:00,
2013-02-23 19:03:00,24.1,16.1,29.94,SW,230,1.0,2.0,71,0.00,,,0.00,Wunderground v.1.15,2013-02-24 01:03:00,
2013-02-23 19:08:00,24.1,16.1,29.94,WSW,247,1.0,2.0,71,0.00,,,0.00,Wunderground v.1.15,2013-02-24 01:08:00,
2013-02-23 19:14:00,24.1,16.1,29.94,SSW,193,1.0,7.0,71,0.00,,,0.00,Wunderground v.1.15,2013-02-24 01:14:00,
2013-02-23 19:19:00,24.1,16.1,29.94,SW,232,1.0,7.0,71,0.00,,,0.00,Wunderground v.1.15,2013-02-24 01:19:00,
2013-02-23 19:25:00,23.9,15.9,29.94,WSW,241,1.0,3.0,71,0.00,,,0.00,Wunderground v.1.15,2013-02-24 01:25:00,
2013-02-23 19:30:00,23.9,15.9,29.94,SW,226,1.0,1.0,71,0.00,,,0.00,Wunderground v.1.15,2013-02-24 01:30:00,
2013-02-23 19:35:00,23.9,15.9,29.94,SW,230,0.0,1.0,71,0.00,,,0.00,Wunderground v.1.15,2013-02-24 01:35:00,
2013-02-23 19:40:00,23.9,15.9,29.94,SW,226,1.0,1.0,71,0.00,,,0.00,Wunderground v.1.15,2013-02-24 01:40:00,
2013-02-23 19:46:00,23.8,15.8,29.95,SSW,210,1.0,2.0,71,0.00,,,0.00,Wunderground v.1.15,2013-02-24 01:46:00,
2013-02-23 19:52:00,23.8,16.1,29.95,WSW,237,0.0,6.0,72,0.00,,,0.00,Wunderground v.1.15,2013-02-24 01:52:00,
2013-02-23 19:57:00,23.8,16.1,29.95,SW,234,0.0,6.0,72,0.00,,,0.00,Wunderground v.1.15,2013-02-24 01:57:00,
2013-02-23 20:03:00,23.8,16.1,29.95,SW,236,1.0,1.0,72,0.00,,,0.00,Wunderground v.1.15,2013-02-24 02:03:00,
2013-02-23 20:09:00,23.8,16.1,29.95,WSW,240,1.0,4.0,72,0.00,,,0.00,Wunderground v.1.15,2013-02-24 02:09:00,
2013-02-23 20:14:00,23.6,15.9,29.95,WSW,239,2.0,3.0,72,0.00,,,0.00,Wunderground v.1.15,2013-02-24 02:14:00,
2013-02-23 20:20:00,23.6,15.9,29.95,SW,215,2.0,2.0,72,0.00,,,0.00,Wunderground v.1.15,2013-02-24 02:20:00,
2013-02-23 20:26:00,23.6,15.9,29.95,SW,233,2.0,6.0,72,0.00,,,0.00,Wunderground v.1.15,2013-02-24 02:26:00,
2013-02-23 20:31:00,23.6,15.9,29.96,WSW,240,2.0,4.0,72,0.00,,,0.00,Wunderground v.1.15,2013-02-24 02:31:00,
2013-02-23 20:37:00,23.5,15.8,29.96,WSW,239,1.0,5.0,72,0.00,,,0.00,Wunderground v.1.15,2013-02-24 02:37:00,
2013-02-23 20:43:00,23.5,15.8,29.96,SW,236,1.0,2.0,72,0.00,,,0.00,Wunderground v.1.15,2013-02-24 02:43:00,
2013-02-23 20:49:00,23.5,16.1,29.96,WSW,257,1.0,3.0,73,0.00,,,0.00,Wunderground v.1.15,2013-02-24 02:49:00,
2013-02-23 20:55:00,23.5,16.1,29.96,WSW,254,1.0,6.0,73,0.00,,,0.00,Wunderground v.1.15,2013-02-24 02:55:00,
2013-02-23 21:00:00,23.5,16.1,29.96,SSW,202,1.0,6.0,73,0.00,,,0.00,Wunderground v.1.15,2013-02-24 03:00:00,
2013-02-23 21:05:00,23.3,15.9,29.96,WSW,253,2.0,6.0,73,0.00,,,0.00,Wunderground v.1.15,2013-02-24 03:05:00,
2013-02-23 21:11:00,23.3,15.9,29.96,WSW,243,2.0,5.0,73,0.00,,,0.00,Wunderground v.1.15,2013-02-24 03:11:00,
2013-02-23 21:16:00,23.3,15.9,29.95,WSW,246,2.0,5.0,73,0.00,,,0.00,Wunderground v.1.15,2013-02-24 03:16:00,
2013-02-23 21:24:00,23.2,15.8,29.95,SSW,210,3.0,4.0,73,0.00,,,0.00,Wunderground v.1.15,2013-02-24 03:24:00,
2013-02-23 21:30:00,23.2,15.8,29.95,SW,236,3.0,3.0,73,0.00,,,0.00,Wunderground v.1.15,2013-02-24 03:30:00,
2013-02-23 21:35:00,23.2,15.8,29.95,WSW,244,3.0,8.0,73,0.00,,,0.00,Wunderground v.1.15,2013-02-24 03:35:00,
2013-02-23 21:41:00,23.2,15.8,29.95,WSW,254,3.0,3.0,73,0.00,,,0.00,Wunderground v.1.15,2013-02-24 03:41:00,
2013-02-23 21:46:00,23.2,15.8,29.95,WSW,241,2.0,6.0,73,0.00,,,0.00,Wunderground v.1.15,2013-02-24 03:46:00,
2013-02-23 21:52:00,23.0,15.6,29.95,WSW,244,2.0,2.0,73,0.00,,,0.00,Wunderground v.1.15,2013-02-24 03:52:00,
2013-02-23 21:57:00,23.0,15.6,29.95,SW,234,2.0,3.0,73,0.00,,,0.00,Wunderground v.1.15,2013-02-24 03:57:00,
2013-02-23 22:02:00,23.0,15.6,29.95,SW,229,2.0,2.0,73,0.00,,,0.00,Wunderground v.1.15,2013-02-24 04:02:00,
2013-02-23 22:07:00,23.0,15.6,29.95,WSW,241,1.0,2.0,73,0.00,,,0.00,Wunderground v.1.15,2013-02-24 04:07:00,
2013-02-23 22:12:00,23.0,15.6,29.95,WSW,247,1.0,5.0,73,0.00,,,0.00,Wunderground v.1.15,2013-02-24 04:12:00,
2013-02-23 22:17:00,23.0,15.6,29.94,WSW,237,1.0,5.0,73,0.00,,,0.00,Wunderground v.1.15,2013-02-24 04:17:00,
2013-02-23 22:22:00,23.0,15.6,29.94,SW,233,2.0,4.0,73,0.00,,,0.00,Wunderground v.1.15,2013-02-24 04:22:00,
2013-02-23 22:28:00,22.9,15.5,29.94,WSW,244,1.0,4.0,73,0.00,,,0.00,Wunderground v.1.15,2013-02-24 04:28:00,
2013-02-23 22:34:00,22.9,15.5,29.94,WSW,241,1.0,4.0,73,0.00,,,0.00,Wunderground v.1.15,2013-02-24 04:34:00,
2013-02-23 22:40:00,22.9,15.8,29.94,West,264,2.0,2.0,74,0.00,,,0.00,Wunderground v.1.15,2013-02-24 04:40:00,
2013-02-23 22:46:00,22.9,15.8,29.94,WSW,240,1.0,3.0,74,0.00,,,0.00,Wunderground v.1.15,2013-02-24 04:46:00,
2013-02-23 22:52:00,22.9,15.8,29.94,WSW,250,1.0,1.0,74,0.00,,,0.00,Wunderground v.1.15,2013-02-24 04:52:00,
2013-02-23 22:57:00,22.9,15.8,29.94,WSW,244,1.0,6.0,74,0.00,,,0.00,Wunderground v.1.15,2013-02-24 04:57:00,
2013-02-23 23:00:00,22.7,15.7,29.94,WSW,240,1.0,1.0,74,0.00,,,0.00,Wunderground v.1.15,2013-02-24 05:00:00,
2013-02-23 23:01:00,22.7,15.7,29.94,WSW,240,1.0,1.0,74,0.00,,,0.00,Wunderground v.1.15,2013-02-24 05:01:00,
2013-02-23 23:02:00,22.7,15.7,29.94,WSW,251,1.0,1.0,74,0.00,,,0.00,Wunderground v.1.15,2013-02-24 05:02:00,
2013-02-23 23:05:00,22.7,15.7,29.94,SW,229,1.0,2.0,74,0.00,,,0.00,Wunderground v.1.15,2013-02-24 05:05:00,
2013-02-23 23:10:00,22.7,15.7,29.94,WSW,247,0.0,0.0,74,0.00,,,0.00,Wunderground v.1.15,2013-02-24 05:10:00,
2013-02-23 23:15:00,22.5,15.5,29.95,WSW,243,0.0,2.0,74,0.00,,,0.00,Wunderground v.1.15,2013-02-24 05:15:00,
2013-02-23 23:20:00,22.5,15.5,29.95,WSW,246,0.0,0.0,74,0.00,,,0.00,Wunderground v.1.15,2013-02-24 05:20:00,
2013-02-23 23:26:00,22.4,15.4,29.95,WSW,253,1.0,2.0,74,0.00,,,0.00,Wunderground v.1.15,2013-02-24 05:26:00,
2013-02-23 23:31:00,22.4,15.4,29.95,WSW,239,1.0,1.0,74,0.00,,,0.00,Wunderground v.1.15,2013-02-24 05:31:00,
2013-02-23 23:37:00,22.2,15.2,29.95,WSW,243,1.0,2.0,74,0.00,,,0.00,Wunderground v.1.15,2013-02-24 05:37:00,
2013-02-23 23:43:00,22.1,15.1,29.95,SW,234,1.0,1.0,74,0.00,,,0.00,Wunderground v.1.15,2013-02-24 05:43:00,
2013-02-23 23:48:00,21.9,14.9,29.95,SW,234,0.0,1.0,74,0.00,,,0.00,Wunderground v.1.15,2013-02-24 05:48:00,
2013-02-23 23:53:00,21.8,14.5,29.95,SW,234,0.0,0.0,73,0.00,,,0.00,Wunderground v.1.15,2013-02-24 05:53:00,
2013-02-23 23:58:00,21.6,14.3,29.95,West,263,0.0,0.0,73,0.00,,,0.00,Wunderground v.1.15,2013-02-24 05:58:00,